SCP
0 0 0 0 0 0 0 0 0 0 0 0 0 0 0 0 0 0 0 0 0 0 0 0 0 0 0 0 0 0 0 0 0 0 0 0 0 0 0 0 0 0 0
0 0 0 0 0 0 0 0 0 0 0 0 0 0 0 0 0 0 0 0 0 0 0 0 0 0 0 0 0 0 0 0 0 0 0 0 0 0 0 0 0 0 0
0 0 0 0 0 0 0 0 0 0 0 0 0 0 0 0 0 0 0 0 0 0 0 0 0 0 0 0 0 0 0 0 0 0 0 0 0 0 0 0 0 0 0
0 0 0 0 0 0 0 0 0 0 0 0 0 0 0 0 0 0 0 0 0 0 0 0 0 0 0 0 0 0 0 0 0 0 0 0 0 0 0 0 0 0 0
0 0 0 0 0 0 0 0 0 0 0 0 0 0 0 0 0 0 0 0 0 0 0 0 0 0 0 0 0 0 0 0 0 0 0 0 0 0 0 0 0 0 0
0 0 0 0 0 0 0 0 0 0 0 0 0 0 0 0 0 0 0 0 0 0 0 0 0 0 0 0 0 0 0 0 0 0 0 0 0 0 0 0 0 0 0
0 0 0 0 0 0 0 0 0 0 0 0 0 0 0 0 0 0 0 0 0 0 0 0 0 0 0 0 0 0 0 0 0 0 0 0 0 0 0 0 0 0 0
0 0 0 0 0 0 0 0 0 0 0 0 0 0 0 0 0 0 0 0 0 0 0 0 0 0 0 0 0 0 0 0 0 0 0 0 0 0 0 0 0 0 0
0 0 0 0 0 0 0 0 0 0 0 0 0 0 0 0 0 0 0 0 0 0 0 0 0 0 0 0 0 0 0 0 0 0 0 0 0 0 0 0 0 0 0
0 0 0 0 0 0 0 0 0 0 0 0 0 0 0 0 0 0 0 0 0 0 0 0 0 0 0 0 0 0 0 0 0 0 0 0 0 0 0 0 0 0 0
0 0 0 0 0 0 0 0 0 0 0 0 0 0 0 0 0 0 0 0 0 0 0 0 0 0 0 0 0 0 0 0 0 0 0 0 0 0 0 0 0 0 0
0 0 0 0 0 0 0 0 0 0 0 0 0 0 0 0 0 0 0 0 0 0 0 0 0 0 0 0 0 0 0 0 0 0 0 0 0 0 0 0 0 0 0
0 0 0 0 0 0 0 0 0 0 0 0 0 0 0 0 0 0 0 0 0 0 0 0 0 0 0 0 0 0 0 0 0 0 0 0 0 0 0 0 0 0 0
0 0 0 0 0 0 0 0 0 0 0 0 0 0 0 0 0 0 0 0 0 0 0 0 0 0 0 0 0 0 0 0 0 0 0 0 0 0 0 0 0 0 0
0 0 0 0 0 0 0 0 0 0 0 0 0 0 0 0 0 0 0 0 0 0 0 0 0 0 0 0 0 0 0 0 0 0 0 0 0 0 0 0 0 0 0
0 0 0 0 0 0 0 0 0 0 0 0 0 0 0 0 0 0 0 0 0 0 0 0 0 0 0 0 0 0 0 0 0 0 0 0 0 0 0 0 0 0 0
0 0 0 0 0 0 0 0 0 0 0 0 0 0 0 0 0 0 0 0 0 0 0 0 0 0 0 0 0 0 0 0 0 0 0 0 0 0 0 0 0 0 0
0 0 0 0 0 0 0 0 0 0 0 0 0 0 0 0 0 0 0 0 0 0 0 0 0 0 0 0 0 0 0 0 0 0 0 0 0 0 0 0 0 0 0
0 0 0 0 0 0 0 0 0 0 0 0 0 0 0 0 0 0 0 0 0 0 0 0 0 0 0 0 0 0 0 0 0 0 0 0 0 0 0 0 0 0 0
0 0 0 0 0 0 0 0 0 0 0 0 0 0 0 0 0 0 0 0 0 0 0 0 0 0 0 0 0 0 0 0 0 0 0 0 0 0 0 0 0 0 0
0 0 0 0 0 0 0 0 0 0 0 0 0 0 0 0 0 0 0 0 0 0 0 0 0 0 0 0 0 0 0 0 0 0 0 0 0 0 0 0 0 0 0
0 0 0 0 0 0 0 0 0 0 0 0 0 0 0 0 0 0 0 0 0 0 0 0 0 0 0 0 0 0 0 0 0 0 0 0 0 0 0 0 0 0 0
0 0 0 0 0 0 0 0 0 0 0 0 0 0 0 0 0 0 0 0 0 0 0 0 0 0 0 0 0 0 0 0 0 0 0 0 0 0 0 0 0 0 0
0 0 0 0 0 0 0 0 0 0 0 0 0 0 0 0 0 0 0 0 0 0 0 0 0 0 0 0 0 0 0 0 0 0 0 0 0 0 0 0 0 0 0
0 0 0 0 0 0 0 0 0 0 0 0 0 0 0 0 0 0 0 0 0 0 0 0 0 0 0 0 0 0 0 0 0 0 0 0 0 0 0 0 0 0 0
0 0 0 0 0 0 0 0 0 0 0 0 0 0 0 0 0 0 0 0 0 0 0 0 0 0 0 0 0 0 0 0 0 0 0 0 0 0 0 0 0 0 0
Wind_Speed
4 4 4 2 4 5 6 7 7 7 7 7 7 8 8 8 8 8 7 7 7 6 7 7 7 7 7 8 8 9 9 9 9 9 8 8 8 9 9 9 8 5 10
4 3 2 3 4 4 5 6 6 6 6 6 6 6 6 6 6 6 6 6 6 6 6 6 7 7 7 8 8 8 9 9 9 9 8 6 6 8 8 8 7 5 9
3 2 3 4 4 3 4 5 5 5 5 4 5 5 5 5 5 5 5 5 5 5 5 5 7 6 7 8 8 8 8 8 8 8 7 3 3 7 8 7 7 7 8
3 3 4 5 4 4 3 3 3 3 4 3 3 3 4 4 4 4 4 5 5 4 4 5 5 5 6 7 8 8 8 7 7 6 3 2 1 5 6 7 6 7 7
4 4 5 7 6 5 4 3 2 2 2 2 3 3 3 3 4 4 4 4 5 4 4 5 5 5 6 7 7 7 7 6 5 4 2 1 0 3 5 5 6 6 6
5 5 5 8 7 6 5 4 3 2 1 0 2 3 3 3 4 4 4 4 4 4 5 5 6 6 7 7 7 7 6 6 5 3 2 1 1 3 5 5 5 6 6
6 5 6 9 8 7 6 5 4 3 2 2 2 3 4 4 4 4 4 4 5 6 6 6 6 7 7 8 8 8 6 6 4 3 2 2 3 5 5 5 5 5 5
6 6 6 10 10 9 8 7 5 5 4 3 3 3 3 4 5 5 4 5 6 7 7 7 7 8 8 8 8 8 7 6 5 4 3 3 5 6 6 6 6 5 5
7 7 7 6 7 9 9 8 7 6 5 5 5 4 4 4 5 5 5 5 6 7 7 8 8 9 9 9 8 8 7 7 5 3 4 3 7 8 8 7 7 6 6
7 7 7 7 6 6 5 8 9 8 6 6 6 5 5 5 5 5 5 5 6 7 7 8 9 10 9 9 9 8 8 6 4 4 3 4 9 10 9 9 9 8 8
8 7 7 7 7 7 5 7 7 7 7 6 5 6 5 3 3 3 5 6 6 7 7 8 9 9 9 9 9 8 7 3 5 4 3 8 11 12 11 10 10 10 9
7 7 6 7 7 7 6 5 4 4 4 4 3 3 3 2 2 3 5 6 6 7 7 8 9 9 7 4 6 7 3 5 5 4 5 11 13 13 13 12 12 11 11
4 6 7 7 6 6 5 4 3 3 3 3 4 3 2 2 2 2 2 3 3 4 4 5 5 4 4 4 4 4 5 5 4 4 6 12 14 15 14 14 13 13 13
5 6 6 6 6 6 5 4 3 3 3 3 3 4 2 2 2 2 2 2 2 2 3 3 3 4 5 6 6 6 6 5 4 4 5 12 15 16 16 15 15 15 15
5 6 7 6 6 6 5 4 4 3 3 3 3 3 3 2 2 2 2 2 2 2 3 3 4 4 5 6 6 7 7 7 6 6 5 11 14 16 17 16 16 16 16
5 6 6 6 6 6 5 4 3 3 4 4 3 4 4 2 2 2 3 2 3 3 3 3 4 5 5 5 6 7 7 7 7 7 6 7 12 14 16 17 17 17 17
5 6 7 6 6 6 6 5 4 3 3 4 4 4 4 3 3 3 2 3 3 3 3 3 4 4 4 4 6 6 6 6 6 7 7 5 6 11 14 17 18 18 18
5 6 7 7 7 7 6 5 3 3 3 3 3 4 5 4 4 3 3 3 3 3 3 3 3 4 4 5 5 5 5 5 7 7 6 6 5 6 9 15 16 17 17
5 6 6 7 7 7 6 4 4 3 3 3 3 4 4 5 4 3 3 3 3 3 2 3 3 3 4 4 5 4 4 5 6 6 6 7 7 6 5 8 13 14 15
4 5 6 6 6 6 5 4 3 3 3 3 3 4 5 4 4 3 2 3 3 2 2 3 4 3 3 3 4 4 4 5 4 5 7 6 6 6 6 6 6 8 12
5 5 6 7 7 6 4 3 3 3 3 3 3 5 6 5 5 3 3 3 3 2 3 3 3 4 3 2 2 3 3 4 5 5 5 5 5 6 5 6 5 5 6
4 5 5 6 6 6 4 3 2 3 2 2 3 4 6 6 6 4 4 3 3 2 3 3 2 2 2 1 1 2 2 2 3 4 4 5 5 4 5 6 6 6 6
3 4 5 5 6 5 5 3 3 2 2 3 4 4 6 6 6 5 5 3 3 2 3 3 3 2 2 2 1 1 2 2 2 2 3 3 3 3 4 4 5 6 6
3 3 4 4 4 5 4 3 3 2 2 3 3 4 5 6 6 6 5 4 4 3 3 3 3 2 2 2 2 1 2 1 1 2 1 1 2 3 4 4 4 5 5
2 3 3 3 4 4 4 3 3 3 2 2 3 4 5 5 6 7 6 5 5 3 3 3 3 3 2 2 2 1 2 2 1 3 3 2 2 2 3 4 3 3 3
2 2 2 3 3 3 3 3 3 3 3 4 4 4 4 4 4 7 7 6 5 4 4 4 3 3 3 3 2 1 1 1 1 2 3 3 3 3 3 3 2 2 2
Wind_Direction
312 310 313 76 112 119 120 118 118 111 109 113 115 117 120 126 131 133 134 136 139 137 133 129 131 126 123 122 118 117 114 108 103 97 92 93 99 100 94 88 84 77 87
292 311 346 76 99 111 118 119 119 119 116 117 121 123 126 129 136 142 145 147 149 149 144 142 143 139 133 128 125 121 117 110 104 95 85 80 91 105 102 99 99 95 94
349 7 33 61 78 95 109 116 119 128 131 131 131 134 138 140 144 148 155 161 162 162 160 153 149 149 143 137 133 131 127 121 114 102 88 72 89 108 108 109 107 104 101
19 29 35 47 63 72 84 103 119 130 145 150 150 149 151 156 161 168 172 175 173 176 175 164 153 153 152 148 146 143 138 131 123 109 88 72 66 119 120 120 114 111 108
34 34 31 43 47 51 53 57 80 111 146 175 177 174 178 182 188 190 195 193 188 186 182 173 165 164 162 159 158 155 151 147 138 123 116 98 6 145 136 131 123 120 116
34 30 29 37 35 37 40 40 34 35 25 207 209 212 212 212 213 213 212 205 198 194 193 190 183 177 174 172 172 170 168 159 141 136 149 172 233 185 154 147 141 133 128
31 26 26 29 26 26 23 23 19 16 10 352 284 247 236 233 231 228 224 217 213 207 204 205 199 192 190 189 187 181 177 163 150 159 179 200 226 205 177 166 158 152 146
36 27 23 22 21 18 15 12 7 3 357 345 329 304 280 262 252 243 239 231 225 221 217 215 208 204 203 202 199 189 177 168 168 181 194 209 226 214 196 182 175 172 169
34 28 21 16 15 12 7 3 1 350 345 337 329 325 321 302 278 261 250 244 240 234 229 224 217 213 211 210 207 195 183 178 170 187 201 211 228 220 210 199 193 193 189
32 25 17 12 10 4 354 357 357 349 343 338 331 323 317 309 295 278 262 254 249 244 237 231 225 221 217 215 212 201 189 179 184 196 205 219 228 227 220 212 206 204 202
22 16 14 9 4 358 350 355 354 350 345 339 332 326 317 301 291 278 265 260 256 250 244 239 233 228 221 218 215 207 191 182 187 202 209 225 227 230 226 220 213 210 208
6 2 9 5 359 354 352 350 344 347 343 338 332 327 318 305 288 287 277 265 261 257 253 248 243 234 224 216 216 209 197 190 194 208 216 225 229 232 229 223 219 216 215
352 356 358 357 355 354 348 343 341 340 340 338 339 335 323 313 304 296 283 274 264 257 251 254 250 234 220 213 211 206 203 199 203 212 220 225 230 233 232 226 223 221 220
359 353 351 351 351 348 344 336 335 341 337 335 329 327 327 319 310 300 280 275 264 255 249 245 241 235 226 221 217 214 212 210 211 213 222 227 231 234 235 231 228 225 224
359 349 345 345 348 346 343 338 344 335 334 331 329 325 321 307 296 289 285 278 271 261 248 247 243 241 237 230 226 223 221 220 220 220 225 225 230 235 237 236 234 231 228
352 343 339 343 346 344 344 336 332 332 333 334 332 329 323 312 301 292 285 278 274 267 256 248 247 243 241 236 235 231 228 224 223 223 226 229 230 233 238 239 238 236 232
344 340 341 340 350 347 342 336 338 334 337 338 332 327 322 314 302 292 281 277 275 273 266 260 256 250 245 239 239 237 234 230 227 226 226 227 229 231 235 240 241 239 237
349 346 343 346 347 345 342 333 334 338 340 334 330 327 326 321 312 298 290 285 283 276 265 262 254 253 249 244 241 239 234 232 234 232 226 226 227 230 231 237 241 243 242
353 346 342 343 345 340 336 331 331 334 339 331 331 333 331 329 327 309 299 301 298 284 277 275 267 256 254 253 249 242 234 232 235 235 229 228 227 226 226 234 237 241 244
355 350 344 344 346 341 335 332 336 346 345 341 340 342 336 334 336 327 319 317 312 298 289 282 273 265 259 260 263 255 244 241 235 233 231 227 225 224 225 231 233 240 242
359 357 352 351 348 351 345 342 338 340 338 345 350 352 349 346 341 336 330 324 323 303 295 287 273 273 267 277 271 273 259 241 238 238 234 228 227 224 221 226 229 233 241
348 348 350 349 345 346 338 320 304 311 318 332 346 357 358 356 349 348 336 328 331 316 314 313 310 282 272 242 238 273 278 278 253 239 232 230 232 226 226 227 229 232 239
339 341 341 339 340 342 341 338 339 348 340 351 356 356 359 360 357 354 348 344 348 346 331 326 328 302 286 274 238 224 246 259 306 279 244 235 236 233 238 241 240 242 244
309 324 326 330 338 343 350 360 5 12 358 345 341 344 348 358 358 357 357 360 359 354 349 342 345 323 303 295 300 287 265 263 267 296 296 270 260 249 250 252 253 252 250
299 317 320 327 338 347 359 7 16 14 350 333 347 358 360 359 2 3 3 4 360 353 351 354 350 348 326 311 304 301 286 293 259 264 283 303 299 268 268 263 260 261 264
302 317 319 327 337 350 5 16 23 14 2 5 6 3 -0 357 0 4 3 4 0 355 350 350 355 2 348 338 331 338 339 321 320 287 277 284 284 286 284 269 263 269 286